DW4839 Weather Reports


time (UTC)temp
F
wind
direction
speed
knots
gust
knots
rain 1hr
in
rain 24hr
in
rain mn
in
humidity
%
barometer
mb
20260506044555 56 189 0.0 0.9 0.00 0.00 0.00 82 1016.8
20260506043050 56 189 0.0 1.7 0.00 0.00 0.00 83 1016.6
20260506041559 56 200 0.0 1.7 0.00 0.00 0.00 83 1016.5
20260506040050 56 200 0.0 1.7 0.00 0.00 0.00 82 1016.3
20260506034547 56 232 0.0 1.7 0.00 0.00 0.00 82 1016.2
20260506033052 56 232 0.0 1.7 0.00 0.00 0.00 81 1016.0
20260506031557 57 0 0.0 0.0 0.00 0.00 0.00 80 1015.8
20260506030052 58 232 0.0 1.7 0.00 0.00 0.00 78 1015.7
20260506024552 59 171 0.9 2.6 0.00 0.00 0.00 77 1015.5
20260506023049 59 173 0.0 1.7 0.00 0.00 0.00 77 1015.6
20260506021557 59 185 0.0 1.7 0.00 0.00 0.00 77 1015.6
20260506020049 59 238 0.9 2.6 0.00 0.00 0.00 77 1015.5
20260506014555 59 252 0.9 1.7 0.00 0.00 0.00 76 1015.6
20260506013047 59 32 0.0 1.7 0.00 0.00 0.00 78 1015.6
20260506011548 59 31 0.0 1.7 0.00 0.00 0.00 78 1015.6
20260506010049 59 18 0.9 1.7 0.00 0.00 0.00 80 1015.7
20260506004555 59 34 0.9 1.7 0.00 0.00 0.00 77 1015.7
20260506003053 59 5 0.9 1.7 0.00 0.00 0.00 80 1015.7
20260506001608 59 331 0.9 1.7 0.00 0.00 0.00 78 1015.9
20260506000051 59 26 0.9 1.7 0.00 0.00 0.00 78 1015.9
20260505234553 59 5 0.9 3.5 0.00 0.00 0.00 80 1016.2
20260505233054 59 27 1.7 2.6 0.00 0.00 0.00 78 1016.1
20260505231552 59 30 0.0 1.7 0.00 0.00 0.00 80 1016.2
20260505230117 59 30 0.0 1.7 0.00 0.00 0.00 79 1016.3
20260505224552 59 339 0.0 2.6 0.00 0.00 0.00 78 1016.3
20260505223058 58 352 0.9 3.5 0.00 0.00 0.00 80 1016.4
20260505221555 58 22 3.5 6.1 0.00 0.00 0.00 79 1016.5
20260505220051 58 352 1.7 3.5 0.00 0.00 0.00 80 1016.6
20260505214601 58 352 1.7 3.5 0.00 0.00 0.00 79 1016.5
20260505213056 58 352 0.9 3.5 0.00 0.00 0.00 79 1016.5
20260505211548 58 360 0.9 2.6 0.00 0.00 0.00 81 1016.6
20260505210104 57 0 0.9 2.6 0.00 0.00 0.00 78 1016.7
20260505204549 58 198 0.9 2.6 0.00 0.00 0.00 79 1016.7
20260505203052 57 179 1.7 4.3 0.00 0.00 0.00 79 1016.8
20260505201557 58 248 2.6 4.3 0.00 0.00 0.00 78 1016.8
20260505200048 57 45 0.0 2.6 0.00 0.00 0.00 80 1016.9
20260505194554 57 28 0.9 1.7 0.00 0.00 0.00 81 1016.8
20260505193052 57 167 0.9 2.6 0.00 0.00 0.00 79 1016.9
20260505191556 56 21 1.7 5.2 0.00 0.00 0.00 81 1017.0
20260505190110 55 234 2.6 5.2 0.00 0.00 0.00 81 1016.9
20260505184604 55 18 0.0 3.5 0.00 0.00 0.00 84 1016.9
20260505183052 54 134 0.9 3.5 0.00 0.00 0.00 86 1017.1
20260505181549 54 0 0.9 2.6 0.00 0.00 0.00 86 1016.9
20260505180056 53 267 2.6 4.3 0.00 0.00 0.00 86 1016.8
20260505174550 53 0 0.9 4.3 0.00 0.00 0.00 87 1016.8
20260505173053 53 208 1.7 4.3 0.00 0.00 0.00 87 1016.6
20260505171553 52 264 0.9 2.6 0.00 0.00 0.00 87 1016.5
20260505170108 52 275 1.7 3.5 0.00 0.00 0.00 88 1016.5
20260505164549 53 226 0.9 4.3 0.00 0.00 0.00 87 1016.4
20260505163102 52 187 2.6 6.1 0.00 0.00 0.00 87 1016.4
20260505161552 52 228 1.7 2.6 0.00 0.00 0.00 88 1016.2
20260505153104 51 173 1.7 4.3 0.00 0.00 0.00 90 1016.1
20260505151554 51 236 1.7 6.1 0.00 0.00 0.00 90 1016.1
20260505150112 51 192 1.7 6.1 0.00 0.00 0.00 90 1016.1
20260505140104 51 202 1.7 6.1 0.00 0.00 0.00 90 1015.4
20260505124548 50 169 2.6 5.2 0.00 0.00 0.00 90 1015.1
20260505123106 50 173 2.6 6.1 0.00 0.00 0.00 89 1014.9
20260505121553 51 210 2.6 5.2 0.00 0.00 0.00 89 1015.0
20260505120053 51 194 0.9 3.5 0.00 0.00 0.00 89 1015.0
20260505114600 50 212 1.7 3.5 0.00 0.00 0.00 89 1014.8
20260505113054 51 195 2.6 5.2 0.00 0.00 0.00 89 1014.9
20260505111559 51 211 2.6 5.2 0.00 0.00 0.00 88 1014.9
20260505101553 51 215 1.7 5.2 0.00 0.00 0.00 88 1014.4
20260505100054 51 198 1.7 7.0 0.00 0.00 0.00 88 1014.4
20260505094552 51 190 1.7 6.1 0.00 0.00 0.00 89 1014.4
20260505093050 50 184 3.5 5.2 0.00 0.00 0.00 89 1014.3
20260505091551 50 194 2.6 5.2 0.00 0.00 0.00 88 1014.2
20260505090106 50 200 1.7 5.2 0.00 0.00 0.00 88 1014.0
20260505084548 51 216 1.7 5.2 0.00 0.00 0.00 88 1014.0
20260505083046 51 213 3.5 7.0 0.00 0.00 0.00 87 1014.1
20260505081552 52 202 1.7 4.3 0.00 0.00 0.00 86 1013.8
20260505080053 52 192 1.7 4.3 0.00 0.00 0.00 86 1013.8
20260505074548 52 213 1.7 5.2 0.00 0.00 0.00 85 1013.8
20260505073057 52 177 2.6 7.0 0.00 0.00 0.00 85 1013.5
20260505071555 53 211 4.3 8.7 0.00 0.00 0.00 84 1013.4
20260505070059 53 207 4.3 7.8 0.00 0.00 0.00 84 1013.4
20260505064556 54 214 4.3 8.7 0.00 0.00 0.00 84 1013.1
20260505063102 54 189 4.3 8.7 0.00 0.00 0.00 83 1013.0
20260505061550 55 197 4.3 7.0 0.00 0.00 0.00 82 1012.9
20260505060057 56 205 3.5 9.6 0.00 0.00 0.00 81 1012.7